Temperature
1 1 1 1 0 0 0 0 0 0 0 0 0 0 0 -0 -0 -0 -0 -0 -0 -0 -1 -1 -0 -1 -1 -1 -1 -1 -1 -1 -2 -2 -1 -1 -1 -1 -1 -1 -1 -1 -1
1 1 0 0 0 -0 -0 -0 -0 -0 -0 -0 -1 -1 -1 -1 -1 -1 -1 -1 -1 -1 -1 -1 -1 -1 -1 -1 -1 -2 -2 -2 -2 -2 -2 -2 -2 -2 -2 -2 -2 -2 -1
0 0 -0 -0 -0 -1 -1 -1 -1 -1 -1 -1 -1 -1 -1 -1 -1 -1 -2 -2 -2 -2 -2 -2 -2 -2 -2 -2 -2 -2 -2 -3 -3 -3 -3 -3 -3 -3 -3 -3 -2 -2 -2
-1 -1 -1 -1 -1 -1 -1 -2 -2 -2 -2 -2 -2 -2 -2 -2 -2 -2 -2 -2 -2 -2 -2 -2 -2 -2 -2 -3 -3 -3 -3 -3 -3 -4 -4 -4 -4 -3 -4 -3 -3 -3 -2
-1 -1 -1 -2 -2 -2 -2 -2 -2 -2 -2 -2 -2 -3 -3 -3 -3 -3 -3 -3 -3 -3 -3 -3 -3 -3 -3 -3 -4 -4 -4 -4 -4 -4 -4 -4 -4 -4 -4 -4 -4 -4 -3
-2 -2 -2 -2 -2 -2 -3 -3 -3 -3 -3 -3 -3 -3 -3 -3 -3 -4 -4 -4 -4 -4 -4 -4 -4 -4 -4 -4 -4 -4 -5 -5 -5 -5 -5 -5 -5 -5 -5 -5 -5 -5 -4
-2 -3 -3 -3 -3 -3 -3 -3 -4 -4 -4 -4 -4 -4 -4 -4 -4 -4 -4 -4 -4 -4 -4 -4 -4 -4 -5 -5 -5 -5 -5 -5 -5 -5 -5 -5 -5 -5 -6 -6 -5 -5 -5
-3 -3 -3 -4 -4 -4 -4 -4 -4 -4 -4 -4 -4 -4 -5 -5 -5 -5 -5 -5 -5 -5 -5 -5 -5 -5 -5 -5 -5 -5 -5 -5 -5 -6 -6 -6 -6 -6 -6 -6 -6 -6 -6
-4 -4 -4 -4 -4 -4 -5 -5 -5 -5 -5 -5 -5 -5 -5 -5 -5 -5 -6 -6 -6 -6 -6 -6 -6 -6 -6 -6 -6 -6 -6 -6 -6 -6 -6 -6 -6 -6 -7 -7 -7 -7 -6
-5 -5 -5 -5 -5 -5 -5 -5 -6 -6 -6 -6 -6 -6 -6 -6 -6 -6 -6 -6 -6 -6 -6 -6 -7 -7 -7 -7 -7 -7 -7 -6 -6 -6 -6 -6 -7 -7 -7 -7 -7 -7 -7
-5 -5 -5 -6 -6 -6 -6 -6 -6 -6 -6 -7 -7 -7 -7 -7 -7 -7 -7 -7 -7 -7 -7 -7 -7 -7 -7 -7 -7 -7 -7 -7 -7 -7 -7 -7 -7 -7 -7 -8 -8 -8 -8
-6 -6 -6 -6 -6 -7 -7 -7 -7 -7 -7 -7 -7 -7 -7 -7 -7 -7 -7 -7 -7 -7 -7 -8 -8 -8 -8 -8 -8 -8 -8 -8 -8 -7 -7 -7 -7 -8 -8 -8 -8 -8 -8
-7 -7 -7 -7 -7 -7 -7 -7 -7 -8 -8 -8 -8 -8 -8 -8 -8 -8 -8 -8 -8 -8 -8 -8 -8 -8 -8 -8 -8 -8 -8 -8 -8 -8 -8 -8 -8 -8 -8 -8 -8 -9 -9
-7 -8 -8 -8 -8 -8 -8 -8 -8 -8 -8 -8 -9 -9 -9 -9 -9 -9 -8 -8 -9 -9 -9 -9 -9 -9 -9 -9 -9 -9 -9 -9 -9 -9 -9 -9 -9 -9 -9 -9 -9 -9 -9
-8 -8 -8 -8 -9 -9 -9 -9 -9 -9 -9 -9 -9 -9 -9 -9 -9 -9 -9 -9 -9 -9 -9 -9 -9 -9 -9 -9 -9 -9 -9 -9 -9 -9 -9 -9 -9 -9 -9 -9 -9 -9 -10
-9 -9 -9 -9 -9 -10 -10 -10 -10 -10 -10 -10 -10 -10 -10 -10 -10 -10 -10 -10 -10 -10 -10 -10 -10 -10 -10 -10 -10 -10 -10 -10 -10 -10 -10 -10 -10 -10 -10 -10 -10 -10 -10
-10 -10 -10 -10 -10 -10 -10 -10 -10 -10 -10 -10 -10 -10 -11 -11 -10 -10 -10 -10 -10 -10 -10 -10 -10 -10 -10 -10 -10 -10 -10 -10 -10 -10 -10 -11 -11 -11 -11 -11 -11 -11 -10
-10 -10 -11 -11 -11 -11 -11 -11 -11 -11 -11 -11 -11 -11 -11 -11 -11 -11 -11 -11 -11 -11 -11 -11 -11 -11 -11 -11 -11 -11 -11 -11 -11 -11 -11 -11 -11 -11 -11 -11 -11 -11 -11
-11 -11 -11 -11 -11 -11 -11 -11 -11 -11 -12 -12 -12 -12 -12 -12 -12 -11 -12 -12 -12 -11 -11 -11 -11 -11 -12 -12 -12 -12 -12 -12 -11 -11 -11 -11 -12 -12 -12 -12 -11 -11 -11
-11 -12 -12 -12 -12 -12 -12 -12 -12 -12 -12 -12 -12 -12 -12 -12 -12 -12 -12 -12 -12 -12 -12 -12 -12 -12 -12 -12 -12 -12 -12 -12 -12 -12 -12 -12 -12 -12 -12 -12 -12 -12 -12
-12 -12 -12 -12 -12 -12 -12 -12 -12 -13 -13 -13 -13 -13 -13 -13 -13 -13 -13 -12 -12 -12 -12 -12 -12 -12 -12 -12 -12 -12 -12 -12 -12 -12 -12 -12 -12 -12 -13 -13 -12 -12 -12
-13 -13 -13 -13 -13 -13 -13 -13 -13 -13 -13 -13 -13 -13 -13 -13 -13 -13 -13 -13 -13 -13 -13 -13 -13 -13 -13 -13 -13 -13 -13 -13 -13 -13 -13 -13 -13 -13 -13 -13 -13 -13 -12
-13 -13 -13 -13 -13 -13 -13 -13 -13 -13 -13 -13 -13 -13 -13 -13 -13 -13 -13 -13 -13 -13 -13 -13 -13 -13 -13 -13 -13 -13 -13 -13 -13 -13 -13 -13 -13 -13 -13 -13 -13 -13 -13
-13 -13 -14 -14 -14 -14 -14 -14 -14 -14 -14 -14 -14 -14 -14 -13 -13 -13 -13 -13 -13 -13 -13 -13 -13 -13 -13 -13 -13 -13 -13 -13 -13 -13 -13 -13 -13 -13 -13 -13 -13 -13 -13
-14 -14 -14 -14 -14 -14 -14 -14 -14 -14 -14 -14 -14 -14 -14 -14 -14 -14 -14 -14 -14 -14 -14 -14 -14 -14 -14 -13 -14 -13 -13 -13 -13 -14 -14 -14 -14 -14 -13 -13 -13 -13 -13
-14 -14 -14 -14 -14 -14 -14 -14 -14 -14 -14 -14 -14 -14 -14 -14 -14 -14 -14 -14 -14 -14 -14 -14 -14 -14 -14 -14 -14 -14 -14 -14 -14 -14 -14 -14 -14 -14 -14 -14 -14 -13 -13
Wind_Speed
5 5 5 5 5 5 5 5 5 4 4 5 4 4 4 4 4 4 3 3 3 2 2 2 2 2 1 1 1 1 1 1 3 4 3 3 3 4 6 7 8 8 9
6 5 5 4 4 5 5 5 5 5 4 4 4 4 4 3 3 4 4 3 4 3 3 2 2 2 2 1 1 2 2 2 2 4 4 3 4 4 4 5 7 8 9
5 5 5 4 4 4 5 4 5 5 4 4 4 4 4 4 3 3 4 4 3 3 3 3 3 3 3 2 2 2 2 2 2 3 4 3 3 3 4 4 6 6 9
5 5 5 4 4 4 4 4 5 5 5 4 4 3 3 3 3 3 3 3 3 2 2 2 3 4 4 4 3 3 2 2 2 2 3 3 3 3 3 3 5 4 6
4 4 4 4 3 3 3 3 4 4 4 4 3 3 2 3 4 4 4 3 3 2 2 2 2 3 4 4 3 3 3 2 2 3 3 3 3 3 4 3 5 5 6
4 4 3 4 4 3 3 3 3 3 3 4 4 3 3 3 4 6 4 3 3 3 2 2 2 3 4 5 5 5 4 4 4 4 3 4 4 4 4 4 4 5 5
4 4 4 4 4 3 3 3 3 3 3 3 3 3 3 3 5 6 5 3 3 3 3 2 2 2 3 2 4 5 6 7 7 4 5 5 4 4 4 5 5 5 6
3 3 3 3 3 3 3 3 3 2 3 2 3 3 3 3 5 5 5 3 2 3 3 3 3 3 3 3 3 3 4 4 5 4 5 5 4 4 4 5 5 5 5
3 3 3 3 3 3 3 3 2 2 2 2 2 3 3 3 5 5 4 3 2 2 2 2 3 3 5 5 3 3 3 4 6 7 8 7 7 7 5 3 3 3 5
2 2 2 3 4 4 3 3 2 2 2 2 2 2 3 3 5 5 5 3 3 2 2 3 4 4 6 5 3 3 4 4 4 4 5 6 5 6 6 3 3 4 4
1 1 2 2 3 3 3 3 3 2 2 2 1 1 2 3 4 5 5 3 3 3 3 3 3 6 6 6 4 3 4 3 2 3 3 3 3 3 4 5 4 4 4
1 1 1 1 2 2 3 3 3 3 2 2 1 1 1 2 3 5 6 4 3 3 3 3 3 6 6 6 4 4 5 3 1 2 2 3 3 3 4 5 6 7 7
2 1 1 1 1 2 3 3 2 3 2 2 2 2 1 1 2 5 6 5 5 2 2 4 4 5 5 3 4 4 3 1 1 2 3 3 3 4 4 4 5 6 7
1 1 1 2 1 1 1 2 2 2 2 2 2 2 2 2 2 2 2 3 3 2 2 3 4 4 3 3 3 2 2 1 2 3 3 3 3 3 3 3 4 4 4
1 1 1 1 1 1 1 1 2 2 3 3 3 3 3 3 4 5 3 2 2 3 2 1 1 1 1 1 1 2 2 1 2 2 2 3 3 3 4 3 3 3 4
1 1 1 1 1 1 1 1 2 1 3 3 3 3 3 4 5 5 5 4 3 3 1 1 2 2 2 2 2 2 2 2 2 2 2 3 3 4 4 4 4 4 5
1 0 0 0 1 1 1 1 0 2 2 2 3 3 3 4 4 4 3 3 3 2 1 1 2 2 2 2 2 2 2 2 2 2 3 3 3 4 4 4 4 4 5
0 0 0 1 1 1 1 1 1 1 1 2 3 4 4 4 4 3 3 1 1 1 1 1 2 2 2 2 2 2 2 2 2 3 3 3 3 4 4 5 4 5 6
1 0 0 0 1 1 1 1 1 1 1 1 1 3 4 4 4 3 2 0 1 2 2 2 2 2 2 3 2 2 2 3 3 3 3 3 3 4 4 5 5 7 7
1 1 1 0 0 1 1 1 1 1 1 1 2 2 2 2 1 2 1 1 1 2 2 2 2 3 3 3 3 3 3 3 3 3 4 4 4 4 5 5 5 6 6
1 1 2 1 1 1 1 1 1 2 2 2 2 3 4 2 2 2 2 2 2 3 3 3 3 3 3 3 3 3 4 4 4 4 4 4 4 4 5 5 6 6 6
1 1 1 1 1 2 2 1 2 2 2 2 2 3 5 2 1 2 2 3 2 2 3 3 3 3 3 4 4 4 4 5 4 4 4 5 5 5 5 5 5 6 6
1 1 1 1 1 2 2 1 2 2 2 2 3 3 2 2 2 3 3 3 3 3 4 4 4 4 6 7 7 6 6 6 6 6 5 5 5 5 5 5 6 7 6
1 1 2 2 2 2 2 2 2 2 2 2 3 3 3 3 3 3 3 3 3 4 5 6 6 6 8 8 8 8 10 10 10 10 9 6 6 5 5 6 7 7 7
1 1 2 2 2 2 2 3 3 2 2 3 3 3 3 3 3 3 3 3 4 4 5 7 7 7 9 10 10 10 11 12 12 10 9 7 6 7 7 7 7 7 6
1 2 2 2 2 2 3 3 3 3 3 3 3 3 3 3 3 3 3 3 4 4 6 7 8 9 10 10 11 12 12 13 12 12 10 7 6 6 6 6 7 7 7
Wind_Direction
179 178 175 180 178 177 180 182 178 175 171 172 168 167 167 166 163 162 167 165 167 178 186 182 201 203 201 221 210 227 242 222 248 278 278 281 278 280 301 308 311 312 313
178 174 173 172 174 176 180 179 177 174 172 169 163 167 173 174 171 171 173 175 177 185 195 192 208 205 200 215 216 233 241 244 233 265 284 282 281 275 280 293 309 313 309
166 165 163 165 171 176 176 173 174 171 168 166 167 174 179 181 179 179 175 179 183 189 195 200 211 201 213 225 227 232 241 257 241 243 273 281 286 293 293 294 300 306 310
155 160 163 170 172 172 172 171 172 171 171 176 180 180 180 177 177 179 179 178 178 191 203 212 219 213 215 218 224 228 231 240 247 243 266 279 285 293 286 291 303 304 305
150 154 163 162 157 152 152 162 167 173 178 174 173 173 171 176 183 182 186 182 180 188 208 224 230 229 230 228 230 219 213 223 237 248 260 279 282 293 285 288 293 302 301
149 152 150 145 144 149 154 156 161 170 177 171 172 179 188 201 203 200 193 185 187 194 210 233 242 242 243 248 255 250 239 230 231 242 253 257 266 276 285 286 288 298 295
144 147 149 147 148 155 158 158 171 173 174 177 182 185 197 212 210 208 203 182 179 197 209 219 239 252 261 254 256 259 260 262 258 251 249 251 257 261 267 275 275 277 276
141 147 153 150 151 152 154 164 176 178 176 183 187 193 198 213 214 213 207 175 180 200 214 216 224 243 251 248 236 245 251 259 264 262 248 251 258 254 252 262 268 279 281
147 157 160 158 159 159 164 170 171 167 169 185 187 189 197 218 221 217 208 180 193 216 225 224 228 233 249 253 238 237 257 266 268 270 270 271 278 281 281 281 284 290 290
168 171 167 167 167 169 174 173 170 170 173 184 196 201 205 219 228 221 215 190 200 215 231 237 244 248 253 252 229 224 245 260 264 270 275 282 283 286 291 276 264 271 285
135 141 151 163 169 166 165 165 162 162 155 172 188 215 217 227 233 231 226 201 201 210 224 236 247 254 259 257 256 241 253 266 253 246 261 273 279 283 285 281 265 257 263
87 110 130 154 163 152 154 160 158 158 161 174 179 215 239 245 249 247 240 233 219 209 226 236 244 252 261 262 262 269 277 281 256 240 250 263 270 276 282 279 275 268 262
85 101 123 128 135 149 159 164 162 164 172 188 189 213 242 250 253 256 251 242 239 237 234 237 246 253 260 262 270 271 275 266 232 244 254 267 270 271 280 285 284 284 282
100 102 114 121 123 133 154 166 176 186 191 200 208 221 242 253 251 255 253 253 247 250 257 245 245 248 256 262 272 281 279 250 237 247 260 270 279 279 280 287 287 295 291
100 113 110 109 131 136 136 188 208 213 210 208 211 214 217 235 249 250 246 235 213 217 215 223 221 222 225 238 252 269 260 254 259 263 265 275 283 287 291 292 281 285 279
84 88 103 112 123 121 115 9 333 290 265 260 255 246 248 256 265 264 262 250 244 230 225 192 200 207 224 234 241 252 256 246 248 255 267 266 272 276 283 291 287 279 283
172 189 183 144 153 168 182 181 303 332 326 304 285 276 273 271 273 277 278 257 246 222 204 204 220 223 231 237 241 244 257 265 255 254 263 269 273 276 281 284 290 289 286
37 265 257 204 201 203 213 219 219 223 282 313 313 305 300 292 287 287 292 295 268 265 249 232 242 244 239 238 243 253 264 268 256 255 260 262 267 273 277 279 280 284 286
344 305 249 226 225 226 228 230 228 229 248 274 306 316 317 315 310 302 311 298 249 265 270 257 247 249 252 247 247 251 256 260 261 253 255 257 263 268 274 278 280 289 291
318 312 338 326 268 250 241 235 241 247 257 262 274 285 300 316 312 301 296 275 261 265 261 255 250 246 246 248 250 250 256 259 260 258 257 257 261 263 266 272 276 279 281
316 297 318 321 287 267 254 243 242 244 250 262 268 274 280 263 260 266 274 272 263 262 257 252 250 247 246 249 248 250 253 257 258 260 262 260 258 263 266 269 272 276 280
310 309 300 283 284 276 267 254 248 249 254 265 276 282 287 293 273 271 275 278 271 265 258 254 256 252 245 242 243 244 249 253 255 256 261 262 260 261 264 268 272 276 276
281 287 291 289 283 279 295 281 260 253 254 259 266 272 278 277 272 271 274 277 279 275 269 264 262 263 262 256 247 240 243 250 252 250 254 259 261 263 263 266 271 276 277
276 273 273 279 279 270 271 273 268 263 260 262 268 271 269 267 269 273 275 275 276 275 272 268 264 264 267 267 260 254 253 255 256 251 248 249 255 260 261 266 269 270 273
277 275 273 269 267 266 268 271 271 271 271 272 271 272 272 270 270 273 272 274 277 277 277 275 270 270 271 270 268 265 267 268 266 259 250 246 250 254 258 262 265 269 269
263 263 266 268 264 264 265 267 270 270 270 273 272 270 269 268 269 268 269 270 274 276 277 275 271 270 272 272 271 272 272 271 271 270 263 250 248 255 257 259 261 262 267
Height
1468 1470 1472 1474 1476 1478 1479 1481 1482 1483 1485 1485 1486 1487 1488 1490 1491 1493 1494 1495 1497 1498 1499 1500 1501 1502 1502 1503 1503 1503 1504 1503 1502 1501 1501 1501 1501 1501 1500 1500 1499 1497 1496
1465 1467 1469 1471 1473 1474 1475 1477 1478 1480 1481 1482 1483 1484 1485 1486 1488 1489 1490 1491 1493 1494 1495 1496 1497 1498 1498 1499 1499 1499 1499 1499 1499 1497 1497 1497 1497 1496 1496 1495 1494 1493 1492
1462 1464 1466 1467 1469 1470 1472 1473 1475 1476 1477 1479 1479 1480 1482 1483 1484 1485 1487 1488 1489 1490 1491 1492 1493 1493 1494 1494 1495 1495 1495 1495 1495 1494 1493 1493 1492 1492 1491 1490 1489 1488 1487
1459 1461 1463 1464 1466 1467 1469 1470 1471 1473 1474 1475 1476 1477 1478 1479 1480 1481 1483 1484 1485 1486 1487 1488 1488 1489 1490 1490 1490 1491 1491 1491 1491 1490 1489 1488 1488 1487 1487 1485 1483 1483 1482
1457 1458 1460 1461 1463 1464 1465 1467 1468 1469 1470 1472 1473 1474 1475 1476 1477 1478 1479 1480 1481 1482 1482 1483 1484 1484 1485 1486 1487 1487 1487 1486 1486 1486 1485 1484 1483 1483 1482 1481 1479 1478 1477
1455 1456 1457 1459 1460 1461 1462 1464 1464 1465 1467 1468 1469 1470 1471 1472 1473 1475 1476 1476 1477 1477 1478 1479 1479 1480 1481 1481 1482 1482 1483 1483 1482 1482 1481 1480 1479 1479 1478 1477 1475 1474 1472
1452 1454 1455 1456 1457 1458 1460 1461 1461 1462 1463 1464 1465 1466 1467 1469 1470 1471 1472 1473 1473 1474 1474 1475 1475 1476 1476 1476 1477 1477 1478 1478 1478 1478 1477 1476 1475 1474 1474 1473 1471 1470 1468
1450 1451 1453 1454 1455 1456 1457 1458 1459 1459 1460 1461 1462 1463 1464 1465 1467 1468 1469 1469 1470 1470 1471 1471 1471 1471 1472 1472 1472 1472 1472 1472 1473 1473 1472 1471 1471 1470 1470 1469 1467 1465 1464
1448 1449 1450 1451 1452 1453 1454 1455 1456 1456 1457 1458 1459 1460 1461 1462 1463 1464 1465 1465 1466 1466 1466 1466 1467 1467 1468 1468 1468 1468 1467 1467 1468 1468 1468 1467 1466 1466 1466 1465 1462 1460 1458
1445 1446 1448 1449 1449 1450 1451 1452 1453 1454 1454 1456 1456 1457 1458 1459 1460 1461 1462 1462 1462 1462 1462 1462 1462 1463 1463 1464 1464 1463 1463 1463 1463 1463 1462 1462 1462 1461 1461 1460 1459 1457 1454
1443 1444 1445 1446 1447 1447 1448 1449 1450 1451 1452 1452 1453 1454 1455 1456 1457 1457 1458 1458 1458 1458 1457 1457 1458 1458 1459 1459 1459 1459 1459 1459 1458 1458 1457 1457 1457 1457 1456 1455 1454 1453 1451
1440 1441 1442 1443 1444 1444 1445 1446 1447 1448 1448 1449 1449 1450 1451 1452 1453 1453 1454 1455 1455 1454 1454 1454 1454 1454 1455 1455 1455 1455 1455 1454 1454 1453 1453 1453 1452 1452 1451 1451 1450 1448 1447
1438 1439 1440 1441 1441 1442 1442 1443 1444 1445 1445 1446 1446 1447 1447 1448 1449 1450 1450 1450 1450 1450 1450 1450 1450 1450 1450 1450 1450 1450 1450 1450 1449 1449 1449 1449 1448 1448 1447 1446 1445 1444 1442
1437 1437 1437 1438 1438 1439 1440 1441 1441 1442 1442 1443 1444 1444 1444 1445 1445 1446 1446 1446 1446 1446 1446 1446 1446 1446 1446 1446 1446 1446 1446 1445 1445 1445 1445 1445 1444 1443 1442 1441 1439 1438 1436
1435 1435 1435 1436 1436 1437 1437 1438 1439 1440 1441 1441 1441 1441 1441 1441 1442 1443 1443 1442 1442 1442 1442 1441 1441 1440 1440 1440 1441 1441 1441 1441 1441 1441 1441 1440 1439 1439 1437 1436 1435 1433 1431
1433 1433 1433 1434 1434 1435 1435 1436 1436 1438 1438 1438 1438 1439 1438 1439 1439 1439 1439 1439 1438 1438 1438 1437 1436 1436 1436 1436 1436 1436 1437 1437 1437 1436 1436 1436 1435 1434 1433 1432 1431 1429 1426
1432 1432 1432 1432 1432 1432 1433 1433 1433 1434 1435 1435 1435 1435 1435 1435 1435 1435 1435 1434 1434 1434 1433 1432 1432 1432 1432 1432 1432 1432 1432 1433 1432 1432 1432 1431 1431 1430 1429 1427 1426 1424 1422
1431 1431 1430 1430 1430 1431 1431 1431 1431 1431 1431 1431 1431 1431 1431 1431 1431 1431 1431 1430 1430 1430 1429 1429 1428 1428 1428 1428 1428 1428 1428 1428 1428 1428 1427 1427 1426 1425 1424 1422 1421 1419 1417
1429 1429 1429 1429 1429 1429 1429 1428 1428 1428 1428 1428 1428 1428 1428 1427 1427 1427 1427 1426 1426 1425 1425 1425 1425 1425 1425 1425 1425 1425 1424 1424 1423 1423 1423 1422 1421 1420 1419 1417 1416 1414 1413
1428 1428 1427 1427 1427 1427 1426 1426 1426 1426 1425 1425 1425 1425 1424 1424 1423 1423 1423 1422 1422 1422 1421 1421 1421 1421 1421 1421 1421 1420 1420 1419 1419 1418 1418 1417 1416 1415 1414 1413 1411 1410 1408
1426 1426 1425 1425 1425 1424 1424 1424 1423 1423 1423 1423 1422 1422 1422 1421 1420 1420 1419 1419 1419 1418 1418 1417 1417 1417 1417 1417 1416 1416 1415 1415 1414 1413 1412 1412 1411 1411 1409 1408 1407 1405 1404
1424 1424 1423 1423 1422 1422 1422 1421 1421 1421 1420 1420 1419 1419 1419 1418 1417 1416 1416 1416 1415 1415 1414 1414 1413 1413 1413 1412 1412 1412 1411 1410 1409 1409 1408 1407 1406 1406 1405 1404 1402 1401 1399
1422 1422 1421 1421 1420 1420 1419 1419 1419 1418 1418 1417 1417 1416 1415 1415 1414 1413 1413 1412 1412 1411 1410 1410 1409 1409 1409 1408 1408 1407 1406 1405 1405 1404 1403 1402 1401 1400 1400 1399 1397 1396 1394
1420 1419 1419 1418 1418 1417 1417 1416 1416 1415 1415 1414 1414 1413 1412 1412 1411 1410 1410 1409 1408 1407 1407 1406 1405 1404 1404 1403 1403 1402 1402 1401 1400 1399 1399 1398 1397 1396 1395 1394 1393 1392 1391
1418 1417 1417 1416 1415 1415 1414 1414 1413 1413 1412 1411 1411 1410 1409 1409 1408 1407 1406 1406 1405 1403 1403 1402 1401 1400 1399 1399 1398 1397 1397 1396 1395 1395 1394 1393 1392 1391 1390 1389 1388 1387 1386
1415 1415 1414 1413 1413 1412 1411 1411 1410 1410 1409 1408 1407 1407 1406 1405 1404 1404 1403 1402 1401 1400 1398 1398 1397 1396 1395 1394 1393 1392 1391 1391 1391 1390 1389 1388 1387 1387 1386 1385 1384 1383 1382